GW6057 Weather Reports


Display with metric or nautical units.
time (UTC)temp
F
wind
direction
speed
MPH
gust
MPH
rain 1hr
in
rain 24hr
in
rain mn
in
humidity
%
barometer
mb
20260506073028 52 248 0.0 1.0 0.00 0.00 0.00 91 1017.5
20260506071518 52 250 0.0 1.0 0.00 0.00 0.00 91 1017.3
20260506061511 52 271 0.0 1.0 0.00 0.00 0.00 91 1016.9
20260506044513 53 255 0.0 1.0 0.00 0.00 0.00 89 1016.6
20260506043014 53 255 0.0 1.0 0.00 0.00 0.00 90 1016.5
20260506041506 53 270 0.0 1.0 0.00 0.00 0.00 90 1016.3
20260506040019 53 270 0.0 1.0 0.00 0.00 0.00 90 1016.0
20260506034523 53 328 0.0 1.0 0.00 0.00 0.00 90 1015.8
20260506033017 53 329 0.0 1.0 0.00 0.00 0.00 90 1015.5
20260506031514 53 11 0.0 1.0 0.00 0.00 0.00 89 1015.5
20260506030024 53 349 0.0 1.0 0.00 0.00 0.00 90 1015.4
20260506024515 53 223 0.0 2.0 0.00 0.00 0.00 90 1015.3
20260506023016 54 278 0.0 2.0 0.00 0.00 0.00 90 1015.2
20260506021524 54 283 0.0 1.0 0.00 0.00 0.00 89 1015.1
20260506020024 54 345 0.0 2.0 0.00 0.00 0.00 89 1015.0
20260506014508 54 333 0.0 2.0 0.00 0.00 0.00 90 1014.9
20260506013018 54 24 1.0 2.0 0.00 0.00 0.00 89 1015.0
20260506011510 54 360 1.0 3.0 0.00 0.00 0.00 89 1015.0
20260506010026 55 345 1.0 3.0 0.00 0.00 0.00 87 1014.9
20260506004528 55 323 1.0 4.0 0.00 0.00 0.00 87 1014.8
20260506003012 55 342 0.0 3.0 0.00 0.00 0.00 87 1014.9
20260506001521 55 311 1.0 5.0 0.00 0.00 0.00 87 1014.7
20260506000017 55 307 1.0 5.0 0.00 0.00 0.00 86 1014.8
20260505234512 56 352 1.0 3.0 0.00 0.00 0.00 84 1014.8
20260505233026 56 281 0.0 4.0 0.00 0.00 0.00 83 1014.9
20260505231512 56 274 1.0 4.0 0.00 0.00 0.00 81 1014.8
20260505230036 56 350 1.0 4.0 0.00 0.00 0.00 82 1014.9
20260505224519 57 358 1.0 4.0 0.00 0.00 0.00 82 1014.9
20260505223017 57 250 1.0 5.0 0.00 0.00 0.00 79 1015.0
20260505221533 57 247 1.0 3.0 0.00 0.00 0.00 78 1015.2
20260505220013 58 341 1.0 4.0 0.00 0.00 0.00 78 1015.2
20260505214520 58 257 1.0 4.0 0.00 0.00 0.00 78 1015.0
20260505213028 58 264 0.0 4.0 0.00 0.00 0.00 78 1015.0
20260505211522 58 4 1.0 4.0 0.00 0.00 0.00 81 1014.9
20260505210020 58 21 2.0 4.0 0.00 0.00 0.00 79 1015.0
20260505204520 58 15 1.0 4.0 0.00 0.01 0.00 80 1015.0
20260505203032 57 331 1.0 3.0 0.00 0.02 0.00 81 1015.2
20260505201508 57 233 1.0 4.0 0.00 0.03 0.00 81 1015.2
20260505200025 56 254 1.0 4.0 0.00 0.05 0.00 81 1015.2
20260505194506 57 357 1.0 3.0 0.00 0.05 0.00 82 1015.2
20260505193023 56 287 1.0 3.0 0.00 0.05 0.00 83 1015.0
20260505191520 56 186 1.0 3.0 0.00 0.05 0.00 83 1015.1
20260505190008 56 274 2.0 4.0 0.00 0.05 0.00 83 1015.0
20260505184517 56 258 0.0 3.0 0.00 0.05 0.00 84 1014.8
20260505183011 56 356 0.0 3.0 0.00 0.05 0.00 84 1014.8
20260505181508 55 323 0.0 4.0 0.00 0.05 0.00 85 1014.7
20260505180024 55 300 1.0 3.0 0.00 0.05 0.00 86 1014.7
20260505174509 55 255 0.0 2.0 0.00 0.05 0.00 86 1014.5
20260505173034 55 246 1.0 3.0 0.00 0.05 0.00 86 1014.4
20260505171519 55 1 1.0 3.0 0.00 0.05 0.00 86 1014.4
20260505170022 55 12 1.0 2.0 0.00 0.05 0.00 87 1014.4
20260505164527 55 20 1.0 3.0 0.00 0.05 0.00 87 1014.3
20260505163013 54 291 0.0 1.0 0.00 0.05 0.00 90 1014.2
20260505161514 53 264 0.0 3.0 0.00 0.05 0.00 91 1014.1
20260505153014 52 125 0.0 1.0 0.00 0.05 0.00 94 1014.1
20260505151507 52 236 0.0 1.0 0.00 0.05 0.00 95 1014.0
20260505124528 51 209 0.0 1.0 0.00 0.05 0.00 96 1013.3
20260505123019 51 238 0.0 1.0 0.00 0.05 0.00 96 1013.2
20260505121518 51 251 0.0 1.0 0.00 0.05 0.00 96 1013.2
20260505120027 51 245 0.0 1.0 0.00 0.05 0.00 96 1013.3
20260505114534 51 246 0.0 1.0 0.00 0.05 0.00 96 1013.3
20260505113024 51 249 0.0 1.0 0.00 0.05 0.00 95 1013.3
20260505111504 51 250 0.0 1.0 0.00 0.05 0.00 95 1013.3
20260505101505 51 285 0.0 1.0 0.00 0.05 0.00 95 1013.1
20260505100009 52 264 0.0 2.0 0.00 0.05 0.00 94 1013.3
20260505094506 52 233 0.0 3.0 0.00 0.05 0.00 94 1013.4
20260505093006 52 228 0.0 2.0 0.00 0.05 0.00 94 1013.4
20260505091506 52 267 0.0 1.0 0.00 0.05 0.00 94 1013.7
20260505090009 51 269 0.0 1.0 0.00 0.05 0.00 94 1013.8
20260505084508 51 285 0.0 1.0 0.00 0.05 0.00 94 1013.8
20260505083003 51 248 0.0 2.0 0.00 0.05 0.00 94 1013.9
20260505081505 51 264 0.0 1.0 0.00 0.05 0.00 94 1014.0